| time (UTC) | temp F | wind direction | speed MPH | gust MPH | rain 1hr in | rain 24hr in | rain mn in | humidity % | barometer mb |
| 20260504035750 | 50 | 274 | 3.0 | 5.0 | 0.00 | 0.00 | 0.00 | 39 | 960.1 |
| 20260504035248 | 50 | 299 | 1.0 | 1.0 | 0.00 | 0.00 | 0.00 | 38 | 960.1 |
| 20260504034745 | 50 | 289 | 2.0 | 2.0 | 0.00 | 0.00 | 0.00 | 38 | 960.1 |
| 20260504034242 | 51 | 260 | 2.0 | 2.0 | 0.00 | 0.00 | 0.00 | 37 | 960.0 |
| 20260504033740 | 51 | 6 | 3.0 | 3.0 | 0.00 | 0.00 | 0.00 | 38 | 959.9 |
| 20260504033237 | 51 | 314 | 3.0 | 5.0 | 0.00 | 0.00 | 0.00 | 37 | 959.8 |
| 20260504032734 | 51 | 290 | 3.0 | 3.0 | 0.00 | 0.00 | 0.00 | 37 | 959.9 |
| 20260504032231 | 51 | 306 | 5.0 | 7.0 | 0.00 | 0.00 | 0.00 | 37 | 959.5 |
| 20260504031728 | 51 | 293 | 3.0 | 6.0 | 0.00 | 0.00 | 0.00 | 36 | 959.5 |
| 20260504031226 | 52 | 331 | 4.0 | 5.0 | 0.00 | 0.00 | 0.00 | 36 | 959.4 |
| 20260504030721 | 52 | 291 | 7.0 | 11.0 | 0.00 | 0.00 | 0.00 | 35 | 959.3 |
| 20260504030218 | 52 | 59 | 3.0 | 3.0 | 0.00 | 0.00 | 0.00 | 34 | 959.4 |
| 20260504025715 | 52 | 47 | 5.0 | 7.0 | 0.00 | 0.00 | 0.00 | 34 | 959.3 |
| 20260504025212 | 53 | 301 | 5.0 | 6.0 | 0.00 | 0.00 | 0.00 | 34 | 959.2 |
| 20260504024709 | 53 | 292 | 3.0 | 5.0 | 0.00 | 0.00 | 0.00 | 34 | 959.1 |
| 20260504024205 | 53 | 251 | 5.0 | 8.0 | 0.00 | 0.00 | 0.00 | 34 | 959.3 |
| 20260504023702 | 53 | 59 | 3.0 | 3.0 | 0.00 | 0.00 | 0.00 | 34 | 959.0 |
| 20260504023158 | 54 | 280 | 5.0 | 7.0 | 0.00 | 0.00 | 0.00 | 34 | 958.9 |
| 20260504022654 | 54 | 338 | 5.0 | 7.0 | 0.00 | 0.00 | 0.00 | 35 | 958.9 |
| 20260504022150 | 54 | 292 | 3.0 | 6.0 | 0.00 | 0.00 | 0.00 | 37 | 959.0 |
| 20260504021648 | 54 | 342 | 4.0 | 6.0 | 0.00 | 0.00 | 0.00 | 36 | 958.9 |
| 20260504021145 | 54 | 327 | 3.0 | 3.0 | 0.00 | 0.00 | 0.00 | 37 | 958.9 |
| 20260504020642 | 54 | 315 | 5.0 | 7.0 | 0.00 | 0.00 | 0.00 | 38 | 958.8 |
| 20260504020138 | 54 | 343 | 6.0 | 8.0 | 0.00 | 0.00 | 0.00 | 38 | 958.9 |
| 20260504015635 | 54 | 11 | 2.0 | 2.0 | 0.00 | 0.00 | 0.00 | 40 | 959.0 |
| 20260504015131 | 54 | 354 | 4.0 | 6.0 | 0.00 | 0.00 | 0.00 | 40 | 958.8 |
| 20260504014627 | 54 | 74 | 3.0 | 5.0 | 0.00 | 0.00 | 0.00 | 40 | 958.7 |
| 20260504014124 | 55 | 327 | 2.0 | 3.0 | 0.00 | 0.00 | 0.00 | 40 | 958.6 |
| 20260504013622 | 55 | 318 | 2.0 | 6.0 | 0.00 | 0.00 | 0.00 | 39 | 958.8 |
| 20260504013119 | 55 | 120 | 4.0 | 6.0 | 0.00 | 0.00 | 0.00 | 39 | 958.7 |
| 20260504012616 | 55 | 334 | 3.0 | 5.0 | 0.00 | 0.00 | 0.00 | 39 | 958.7 |
| 20260504012114 | 55 | 5 | 3.0 | 5.0 | 0.00 | 0.00 | 0.00 | 38 | 958.7 |
| 20260504011610 | 56 | 92 | 2.0 | 3.0 | 0.00 | 0.00 | 0.00 | 37 | 958.7 |
| 20260504011107 | 56 | 297 | 5.0 | 10.0 | 0.00 | 0.00 | 0.00 | 35 | 958.4 |
| 20260504010602 | 56 | 315 | 5.0 | 7.0 | 0.00 | 0.00 | 0.00 | 35 | 958.4 |
| 20260504010058 | 57 | 292 | 4.0 | 5.0 | 0.00 | 0.00 | 0.00 | 36 | 958.2 |
| 20260504005555 | 57 | 292 | 5.0 | 6.0 | 0.00 | 0.00 | 0.00 | 35 | 958.4 |
| 20260504005053 | 58 | 331 | 5.0 | 11.0 | 0.00 | 0.00 | 0.00 | 35 | 958.2 |
| 20260504004550 | 57 | 352 | 9.0 | 13.0 | 0.00 | 0.00 | 0.00 | 35 | 958.2 |
| 20260504004047 | 57 | 305 | 3.0 | 3.0 | 0.00 | 0.00 | 0.00 | 36 | 958.3 |
| 20260504003543 | 57 | 284 | 3.0 | 3.0 | 0.00 | 0.00 | 0.00 | 36 | 958.2 |
| 20260504003040 | 57 | 342 | 4.0 | 6.0 | 0.00 | 0.00 | 0.00 | 38 | 958.1 |
| 20260504002537 | 57 | 40 | 5.0 | 10.0 | 0.00 | 0.00 | 0.00 | 38 | 957.9 |
| 20260504002035 | 57 | 309 | 3.0 | 5.0 | 0.00 | 0.00 | 0.00 | 38 | 958.1 |
| 20260504001532 | 58 | 258 | 5.0 | 9.0 | 0.00 | 0.00 | 0.00 | 37 | 958.0 |
| 20260504001028 | 59 | 278 | 3.0 | 3.0 | 0.00 | 0.00 | 0.00 | 38 | 957.9 |
| 20260504000525 | 59 | 352 | 1.0 | 2.0 | 0.00 | 0.00 | 0.00 | 38 | 958.0 |
| 20260504000022 | 58 | 347 | 5.0 | 7.0 | 0.00 | 0.00 | 0.00 | 38 | 958.0 |
| 20260503235520 | 58 | 333 | 5.0 | 9.0 | 0.00 | 0.00 | 0.00 | 38 | 957.9 |
| 20260503235012 | 58 | 288 | 6.0 | 8.0 | 0.00 | 0.00 | 0.00 | 38 | 958.0 |
| 20260503234509 | 58 | 222 | 2.0 | 3.0 | 0.00 | 0.00 | 0.00 | 38 | 957.8 |
| 20260503234008 | 58 | 290 | 5.0 | 7.0 | 0.00 | 0.00 | 0.00 | 38 | 957.7 |
| 20260503233503 | 58 | 326 | 4.0 | 6.0 | 0.00 | 0.00 | 0.00 | 38 | 957.7 |
| 20260503232959 | 58 | 280 | 7.0 | 9.0 | 0.00 | 0.00 | 0.00 | 38 | 957.8 |
| 20260503232457 | 57 | 10 | 1.0 | 2.0 | 0.00 | 0.00 | 0.00 | 39 | 957.6 |
| 20260503231955 | 58 | 302 | 3.0 | 5.0 | 0.00 | 0.00 | 0.00 | 38 | 957.7 |
| 20260503231452 | 58 | 294 | 3.0 | 5.0 | 0.00 | 0.00 | 0.00 | 38 | 957.6 |
| 20260503230948 | 58 | 324 | 2.0 | 3.0 | 0.00 | 0.00 | 0.00 | 38 | 957.6 |
| 20260503230445 | 59 | 352 | 4.0 | 6.0 | 0.00 | 0.00 | 0.00 | 36 | 957.4 |
| 20260503225943 | 59 | 296 | 6.0 | 7.0 | 0.00 | 0.00 | 0.00 | 35 | 957.4 |
| 20260503225439 | 59 | 250 | 7.0 | 10.0 | 0.00 | 0.00 | 0.00 | 35 | 957.4 |
| 20260503224935 | 59 | 346 | 2.0 | 2.0 | 0.00 | 0.00 | 0.00 | 36 | 957.2 |
| 20260503224432 | 59 | 59 | 6.0 | 13.0 | 0.00 | 0.00 | 0.00 | 36 | 957.2 |
| 20260503223930 | 59 | 302 | 5.0 | 8.0 | 0.00 | 0.00 | 0.00 | 36 | 957.1 |
| 20260503223427 | 59 | 358 | 5.0 | 6.0 | 0.00 | 0.00 | 0.00 | 35 | 957.1 |
| 20260503222922 | 60 | 107 | 5.0 | 7.0 | 0.00 | 0.00 | 0.00 | 33 | 957.1 |
| 20260503222421 | 61 | 317 | 5.0 | 6.0 | 0.00 | 0.00 | 0.00 | 33 | 957.0 |
| 20260503221919 | 61 | 262 | 4.0 | 6.0 | 0.00 | 0.00 | 0.00 | 32 | 956.9 |
| 20260503221417 | 60 | 309 | 6.0 | 8.0 | 0.00 | 0.00 | 0.00 | 32 | 956.8 |
| 20260503220914 | 60 | 344 | 4.0 | 7.0 | 0.00 | 0.00 | 0.00 | 33 | 956.8 |
| 20260503220410 | 60 | 321 | 4.0 | 7.0 | 0.00 | 0.00 | 0.00 | 33 | 956.9 |
| 20260503215908 | 60 | 318 | 4.0 | 6.0 | 0.00 | 0.00 | 0.00 | 33 | 957.0 |
| 20260503215404 | 60 | 346 | 1.0 | 2.0 | 0.00 | 0.00 | 0.00 | 33 | 957.0 |
| 20260503214902 | 60 | 309 | 3.0 | 3.0 | 0.00 | 0.00 | 0.00 | 34 | 956.7 |
| 20260503214359 | 60 | 304 | 7.0 | 10.0 | 0.00 | 0.00 | 0.00 | 33 | 956.9 |
| 20260503213856 | 60 | 330 | 8.0 | 9.0 | 0.00 | 0.00 | 0.00 | 33 | 956.8 |
| 20260503213354 | 60 | 286 | 7.0 | 10.0 | 0.00 | 0.00 | 0.00 | 33 | 956.8 |
| 20260503212850 | 60 | 330 | 8.0 | 11.0 | 0.00 | 0.00 | 0.00 | 33 | 956.8 |
| 20260503212349 | 60 | 305 | 9.0 | 14.0 | 0.00 | 0.00 | 0.00 | 33 | 956.9 |
| 20260503211845 | 60 | 299 | 3.0 | 5.0 | 0.00 | 0.00 | 0.00 | 34 | 957.0 |
| 20260503211342 | 60 | 259 | 7.0 | 9.0 | 0.00 | 0.00 | 0.00 | 33 | 956.9 |
| 20260503210837 | 60 | 297 | 6.0 | 8.0 | 0.00 | 0.00 | 0.00 | 33 | 956.9 |
| 20260503210335 | 60 | 353 | 7.0 | 11.0 | 0.00 | 0.00 | 0.00 | 32 | 956.9 |
| 20260503205830 | 60 | 8 | 8.0 | 11.0 | 0.00 | 0.00 | 0.00 | 32 | 956.9 |
| 20260503205326 | 60 | 301 | 4.0 | 5.0 | 0.00 | 0.00 | 0.00 | 33 | 956.9 |
| 20260503204823 | 60 | 277 | 2.0 | 2.0 | 0.00 | 0.00 | 0.00 | 33 | 957.0 |
| 20260503204321 | 60 | 15 | 9.0 | 10.0 | 0.00 | 0.00 | 0.00 | 33 | 957.0 |
| 20260503203818 | 60 | 304 | 8.0 | 18.0 | 0.00 | 0.00 | 0.00 | 33 | 957.1 |
| 20260503203315 | 60 | 329 | 3.0 | 5.0 | 0.00 | 0.00 | 0.00 | 34 | 956.9 |
| 20260503202812 | 60 | 312 | 5.0 | 7.0 | 0.00 | 0.00 | 0.00 | 34 | 956.8 |
| 20260503202310 | 60 | 1 | 3.0 | 5.0 | 0.00 | 0.00 | 0.00 | 34 | 956.8 |
| 20260503201808 | 60 | 299 | 5.0 | 7.0 | 0.00 | 0.00 | 0.00 | 34 | 957.0 |
| 20260503201305 | 60 | 70 | 6.0 | 7.0 | 0.00 | 0.00 | 0.00 | 34 | 957.0 |
| 20260503200802 | 60 | 200 | 5.0 | 8.0 | 0.00 | 0.00 | 0.00 | 34 | 956.8 |
| 20260503200257 | 60 | 285 | 4.0 | 8.0 | 0.00 | 0.00 | 0.00 | 35 | 956.7 |
| 20260503195755 | 60 | 309 | 6.0 | 10.0 | 0.00 | 0.00 | 0.00 | 34 | 956.9 |
| 20260503195251 | 60 | 304 | 8.0 | 10.0 | 0.00 | 0.00 | 0.00 | 33 | 956.7 |
| 20260503194749 | 61 | 331 | 5.0 | 7.0 | 0.00 | 0.00 | 0.00 | 33 | 956.7 |
| 20260503194245 | 61 | 322 | 6.0 | 9.0 | 0.00 | 0.00 | 0.00 | 33 | 956.7 |
| 20260503193741 | 61 | 242 | 6.0 | 7.0 | 0.00 | 0.00 | 0.00 | 32 | 956.8 |
| 20260503193237 | 62 | 334 | 7.0 | 13.0 | 0.00 | 0.00 | 0.00 | 30 | 956.6 |
| 20260503192733 | 62 | 343 | 6.0 | 8.0 | 0.00 | 0.00 | 0.00 | 31 | 956.5 |
| 20260503192228 | 61 | 297 | 7.0 | 9.0 | 0.00 | 0.00 | 0.00 | 32 | 956.6 |
| 20260503191725 | 62 | 289 | 3.0 | 3.0 | 0.00 | 0.00 | 0.00 | 32 | 956.8 |
| 20260503191222 | 62 | 297 | 5.0 | 6.0 | 0.00 | 0.00 | 0.00 | 32 | 956.5 |
| 20260503190720 | 62 | 341 | 8.0 | 13.0 | 0.00 | 0.00 | 0.00 | 32 | 956.5 |
| 20260503190216 | 62 | 235 | 5.0 | 6.0 | 0.00 | 0.00 | 0.00 | 32 | 956.3 |
| 20260503185714 | 62 | 348 | 2.0 | 2.0 | 0.00 | 0.00 | 0.00 | 33 | 956.4 |
| 20260503185209 | 62 | 276 | 7.0 | 10.0 | 0.00 | 0.00 | 0.00 | 31 | 956.6 |
| 20260503184703 | 63 | 292 | 5.0 | 8.0 | 0.00 | 0.00 | 0.00 | 30 | 956.5 |
| 20260503184200 | 62 | 266 | 6.0 | 11.0 | 0.00 | 0.00 | 0.00 | 31 | 956.6 |
| 20260503183656 | 62 | 319 | 9.0 | 14.0 | 0.00 | 0.00 | 0.00 | 31 | 956.6 |
| 20260503183154 | 62 | 296 | 4.0 | 8.0 | 0.00 | 0.00 | 0.00 | 31 | 956.7 |
| 20260503182652 | 63 | 294 | 6.0 | 8.0 | 0.00 | 0.00 | 0.00 | 31 | 956.5 |
| 20260503182150 | 62 | 302 | 6.0 | 8.0 | 0.00 | 0.00 | 0.00 | 33 | 956.5 |
| 20260503181646 | 62 | 356 | 3.0 | 5.0 | 0.00 | 0.00 | 0.00 | 33 | 956.5 |
| 20260503181143 | 62 | 322 | 5.0 | 7.0 | 0.00 | 0.00 | 0.00 | 33 | 956.5 |
| 20260503180640 | 62 | 320 | 7.0 | 8.0 | 0.00 | 0.00 | 0.00 | 32 | 956.6 |
| 20260503180138 | 62 | 272 | 4.0 | 5.0 | 0.00 | 0.00 | 0.00 | 33 | 956.7 |
| 20260503175635 | 62 | 274 | 3.0 | 5.0 | 0.00 | 0.00 | 0.00 | 34 | 956.8 |
| 20260503175132 | 62 | 293 | 8.0 | 10.0 | 0.00 | 0.00 | 0.00 | 33 | 956.9 |
| 20260503174629 | 62 | 343 | 6.0 | 8.0 | 0.00 | 0.00 | 0.00 | 34 | 956.7 |
| 20260503174126 | 62 | 251 | 4.0 | 6.0 | 0.00 | 0.00 | 0.00 | 34 | 956.9 |
| 20260503173621 | 62 | 295 | 7.0 | 10.0 | 0.00 | 0.00 | 0.00 | 34 | 956.6 |
| 20260503173117 | 62 | 40 | 2.0 | 3.0 | 0.00 | 0.00 | 0.00 | 34 | 956.6 |
| 20260503172614 | 62 | 303 | 3.0 | 5.0 | 0.00 | 0.00 | 0.00 | 34 | 956.5 |
| 20260503172112 | 61 | 354 | 5.0 | 6.0 | 0.00 | 0.00 | 0.00 | 35 | 956.5 |
| 20260503171609 | 62 | 319 | 5.0 | 6.0 | 0.00 | 0.00 | 0.00 | 34 | 956.7 |
| 20260503171106 | 63 | 228 | 8.0 | 14.0 | 0.00 | 0.00 | 0.00 | 33 | 956.5 |
| 20260503170603 | 62 | 15 | 5.0 | 8.0 | 0.00 | 0.00 | 0.00 | 33 | 956.7 |
| 20260503150954 | 59 | 287 | 5.0 | 8.0 | 0.00 | 0.00 | 0.00 | 44 | 956.2 |
| 20260503150451 | 58 | 306 | 3.0 | 3.0 | 0.00 | 0.00 | 0.00 | 44 | 956.3 |
| 20260503131344 | 54 | 327 | 2.0 | 2.0 | 0.00 | 0.00 | 0.00 | 47 | 955.6 |
| 20260503130841 | 54 | 162 | 1.0 | 2.0 | 0.00 | 0.00 | 0.00 | 47 | 955.3 |
| 20260503130338 | 53 | 113 | 2.0 | 2.0 | 0.00 | 0.00 | 0.00 | 48 | 955.5 |
| 20260503110733 | 49 | 250 | 1.0 | 1.0 | 0.00 | 0.00 | 0.00 | 57 | 955.4 |
| 20260503110230 | 49 | 244 | 1.0 | 1.0 | 0.00 | 0.00 | 0.00 | 57 | 955.4 |
| 20260503100156 | 50 | 208 | 0.0 | 0.0 | 0.00 | 0.00 | 0.00 | 53 | 956.0 |
| 20260503090115 | 51 | 49 | 0.0 | 1.0 | 0.00 | 0.00 | 0.00 | 48 | 955.9 |
| 20260503081551 | 53 | 203 | 1.0 | 1.0 | 0.00 | 0.00 | 0.00 | 43 | 956.2 |
| 20260503081048 | 54 | 146 | 1.0 | 1.0 | 0.00 | 0.00 | 0.00 | 42 | 956.4 |
| 20260503080544 | 54 | 209 | 1.0 | 1.0 | 0.00 | 0.00 | 0.00 | 41 | 956.4 |
| 20260503072518 | 56 | 28 | 0.0 | 0.0 | 0.00 | 0.00 | 0.00 | 39 | 956.7 |
| 20260503072015 | 56 | 245 | 2.0 | 2.0 | 0.00 | 0.00 | 0.00 | 39 | 956.5 |
| 20260503071512 | 57 | 271 | 3.0 | 5.0 | 0.00 | 0.00 | 0.00 | 38 | 956.5 |
| 20260503071008 | 57 | 195 | 1.0 | 2.0 | 0.00 | 0.00 | 0.00 | 38 | 956.5 |
| 20260503070505 | 57 | 318 | 2.0 | 2.0 | 0.00 | 0.00 | 0.00 | 38 | 956.6 |
| 20260503054923 | 55 | 220 | 0.0 | 1.0 | 0.00 | 0.00 | 0.00 | 48 | 956.2 |
| 20260503054419 | 56 | 30 | 0.0 | 0.0 | 0.00 | 0.00 | 0.00 | 46 | 956.2 |
| 20260503053917 | 56 | 67 | 0.0 | 0.0 | 0.00 | 0.00 | 0.00 | 45 | 956.1 |
| 20260503053415 | 57 | 56 | 0.0 | 0.0 | 0.00 | 0.00 | 0.00 | 44 | 956.1 |
| 20260503052911 | 57 | 45 | 0.0 | 0.0 | 0.00 | 0.00 | 0.00 | 43 | 955.9 |
| 20260503052408 | 57 | 54 | 0.0 | 0.0 | 0.00 | 0.00 | 0.00 | 42 | 956.0 |
| 20260503051904 | 58 | 55 | 0.0 | 0.0 | 0.00 | 0.00 | 0.00 | 42 | 956.2 |
| 20260503051400 | 58 | 25 | 0.0 | 0.0 | 0.00 | 0.00 | 0.00 | 43 | 956.5 |
| 20260503050858 | 57 | 36 | 0.0 | 0.0 | 0.00 | 0.00 | 0.00 | 45 | 956.3 |
| 20260503050354 | 55 | 48 | 0.0 | 0.0 | 0.00 | 0.00 | 0.00 | 46 | 956.1 |
| 20260503045852 | 54 | 49 | 0.0 | 0.0 | 0.00 | 0.00 | 0.00 | 46 | 956.1 |
| 20260503045349 | 54 | 41 | 0.0 | 0.0 | 0.00 | 0.00 | 0.00 | 44 | 956.3 |
| 20260503044845 | 53 | 31 | 0.0 | 0.0 | 0.00 | 0.00 | 0.00 | 43 | 956.0 |
| 20260503044342 | 54 | 36 | 0.0 | 0.0 | 0.00 | 0.00 | 0.00 | 43 | 956.2 |
| 20260503043839 | 54 | 37 | 0.0 | 0.0 | 0.00 | 0.00 | 0.00 | 42 | 956.1 |
| 20260503043336 | 55 | 34 | 0.0 | 0.0 | 0.00 | 0.00 | 0.00 | 41 | 956.1 |
| 20260503042832 | 55 | 38 | 0.0 | 0.0 | 0.00 | 0.00 | 0.00 | 40 | 955.8 |
| 20260503042329 | 56 | 42 | 0.0 | 0.0 | 0.00 | 0.00 | 0.00 | 41 | 955.9 |
| 20260503041825 | 57 | 39 | 0.0 | 0.0 | 0.00 | 0.00 | 0.00 | 40 | 955.9 |
| 20260503041323 | 57 | 42 | 0.0 | 0.0 | 0.00 | 0.00 | 0.00 | 40 | 955.7 |
| 20260503040821 | 57 | 61 | 0.0 | 0.0 | 0.00 | 0.00 | 0.00 | 40 | 955.9 |
| 20260503040318 | 58 | 60 | 0.0 | 0.0 | 0.00 | 0.00 | 0.00 | 40 | 956.0 |
| 20260503035815 | 58 | 46 | 0.0 | 0.0 | 0.00 | 0.00 | 0.00 | 39 | 956.0 |